Regional Weather Roundup
Issued by NWS

Home | Current Version | Previous Version | Text Only | Print | Product List | Glossary Off
Versions: 1 2 3 4 5 6 7 8 9 10 11 12 13 14 15 16 17 18 19 20 21 22 23 24 25 26 27 28 29 30 31 32 33 34 35 36 37 38 39 40 41 42 43 44 45 46 47 48 49 50

000
ASUS43 KIND 130459
RWRIN

WEATHER ROUNDUP FOR INDIANA
NATIONAL WEATHER SERVICE INDIANAPOLIS IN
100 AM EDT SUN JUL 13 2014

NOTE: "FAIR" INDICATES FEW OR NO CLOUDS BELOW 12,000 FEET WITH NO
SIGNIFICANT WEATHER AND/OR OBSTRUCTIONS TO VISIBILITY.

* - STATION DOES NOT REPORT WEATHER SUCH AS PRECIPITATION OR FOG.

+ - STATION NOT QUALITY CONTROLLED BY THE NATIONAL WEATHER SERVICE.
    USE DATA WITH CAUTION...ESPECIALLY DEWPOINT AND RELATIVE
    HUMIDITY OBSERVATIONS.

INZ001>003-010>013-019-020-130600-
NORTHWEST INDIANA

CITY           SKY/WX    TMP DP  RH WIND       PRES   REMARKS
MONTICELLO +   CLOUDY    76  74  92 SW13G20   29.93F
RENSSELAER +   CLOUDY    77  75  94 S13       29.92S
VALPARAISO     CLOUDY    77  74  90 SW13      29.91R

$$

LMZ046-743>745-130600-
SOUTHERN LAKE MICHIGAN

STATION/POSITION TIME  TEMP WIND        PRES
                       AIR  DIR/SP/G
                 (UTC) (F)  (DEG/KT/KT) (MB)
BURNS HARBOR     0400   76  190/ 11/ 16 1012.2R
MICHIGAN CITY    0400   76  160/ 16/ 23   N/A

$$

INZ004-005-014>016-021>024-130600-
NORTH CENTRAL INDIANA

CITY           SKY/WX    TMP DP  RH WIND       PRES   REMARKS
GOSHEN         LGT RAIN  76  71  85 S10       29.92F
SOUTH BEND     LGT RAIN  76  72  87 SW14      29.90F
WARSAW +       CLOUDY    73  70  88 SW6       29.94R

$$

INZ006>009-017-018-025>027-130600-
NORTHEAST INDIANA

CITY           SKY/WX    TMP DP  RH WIND       PRES   REMARKS
ANGOLA *+      CLOUDY    73  66  78 S8        29.94S
FORT WAYNE     MOCLDY    74  69  85 SW14      29.96S

$$

INZ028-029-035-036-043>045-051>053-130600-
WEST CENTRAL INDIANA

CITY           SKY/WX    TMP DP  RH WIND       PRES   REMARKS
GREENCASTLE +  PTCLDY    75  72  88 SW5       30.02R
LAFAYETTE      MOCLDY    76  73  91 SW9       29.95S
TERRE HAUTE    PTCLDY    78  72  81 S13       30.00R

$$

INZ030>032-037>040-046>048-054>057-064-065-130600-
CENTRAL INDIANA

CITY           SKY/WX    TMP DP  RH WIND       PRES   REMARKS
INDIANAPOLIS   MOCLDY    75  70  84 S12       30.00S
-EAGLE CREEK   CLEAR     76  70  82 S8        30.00S
KOKOMO *+      CLOUDY    75  70  83 SW14G23   29.97S
MT COMFORT *+  PTCLDY    73  73 100 S7        30.02F
SHELBYVILLE    PTCLDY    75  70  84 S7        30.03R

$$

INZ033-034-041-042-049-050-058-059-130600-
EAST CENTRAL INDIANA

CITY           SKY/WX    TMP DP  RH WIND       PRES   REMARKS
MUNCIE         PTCLDY    76  68  76 SW9       30.00S

$$

INZ060-061-067>069-081>083-085>088-130600-
SOUTHWEST INDIANA

CITY           SKY/WX    TMP DP  RH WIND       PRES   REMARKS
EVANSVILLE     MOCLDY    80  71  74 SW9       30.04F
HUNTINGBURG *+ MOCLDY    79  70  73 SW7       30.05S

$$

INZ062-063-066-070>080-084-089>092-130600-
SOUTH CENTRAL AND SOUTHEAST INDIANA

CITY           SKY/WX    TMP DP  RH WIND       PRES   REMARKS
BLOOMINGTON    PTCLDY    77  70  79 SW7       30.03F

$$




USA.gov is the U.S. government's official web portal to all federal, state and local government web resources and services.